AE5PL Weather Reports


time (UTC)temp
C
wind
direction
speed
KPH
gust
KPH
rain 1hr
cm
rain 24hr
cm
rain mn
cm
humidity
%
barometer
mb
20260506044230 15 360 11.3 22.5 0.00 0.00 0.00 81 1008.9
20260506043730 15 22 9.7 24.1 0.00 0.00 0.00 81 1008.9
20260506043230 15 360 11.3 19.3 0.00 0.00 0.00 81 1008.9
20260506042730 16 337 11.3 20.9 0.00 0.00 0.00 81 1008.9
20260506042230 16 360 8.0 17.7 0.00 0.00 0.00 81 1008.9
20260506041730 16 360 9.7 19.3 0.00 0.00 0.00 81 1008.7
20260506041230 16 360 9.7 17.7 0.00 0.00 0.00 81 1008.6
20260506040730 16 360 9.7 19.3 0.00 0.00 0.00 81 1008.6
20260506040230 16 360 9.7 20.9 0.00 0.00 0.00 81 1008.4
20260506035730 16 360 11.3 19.3 0.00 0.00 0.00 81 1008.3
20260506035230 17 337 12.9 22.5 0.00 0.00 0.00 81 1008.5
20260506034730 17 337 9.7 17.7 0.00 0.00 0.00 81 1008.5
20260506034230 17 337 9.7 17.7 0.00 0.00 0.00 81 1008.3
20260506033730 17 360 8.0 16.1 0.00 0.00 0.00 81 1008.2
20260506033230 17 360 11.3 20.9 0.00 0.00 0.00 81 1008.3
20260506032730 17 337 14.5 25.7 0.00 0.00 0.00 80 1008.2
20260506032230 17 337 12.9 27.4 0.00 0.00 0.00 80 1008.1
20260506031730 17 337 12.9 22.5 0.00 0.00 0.00 80 1007.8
20260506031230 18 337 9.7 19.3 0.00 0.00 0.00 80 1007.8
20260506030730 18 337 11.3 19.3 0.00 0.00 0.00 80 1007.7
20260506030230 18 337 11.3 19.3 0.00 0.00 0.00 79 1007.7
20260506025730 18 360 8.0 17.7 0.00 0.00 0.00 79 1007.6
20260506025230 18 337 8.0 14.5 0.00 0.00 0.00 79 1007.4
20260506024730 19 22 11.3 19.3 0.00 0.00 0.00 79 1007.3
20260506024230 19 337 11.3 17.7 0.00 0.00 0.00 79 1007.1
20260506023730 19 315 9.7 24.1 0.00 0.00 0.00 78 1006.7
20260506023230 20 360 9.7 20.9 0.00 0.00 0.00 78 1006.5
20260506022730 20 337 11.3 19.3 0.00 0.00 0.00 78 1006.5
20260506022229 20 360 12.9 19.3 0.00 0.00 0.00 78 1006.4
20260506021730 20 337 9.7 19.3 0.00 0.00 0.00 78 1006.2
20260506021230 20 360 11.3 17.7 0.00 0.00 0.00 78 1006.4
20260506020729 20 337 9.7 17.7 0.00 0.00 0.00 78 1006.1
20260506020230 20 337 8.0 17.7 0.00 0.00 0.00 78 1006.2
20260506015730 20 337 6.4 14.5 0.00 0.00 0.00 77 1005.8
20260506015230 20 360 8.0 14.5 0.00 0.00 0.00 77 1005.6
20260506014730 20 360 9.7 17.7 0.00 0.00 0.00 77 1005.9
20260506014230 21 360 11.3 19.3 0.00 0.00 0.00 76 1005.7
20260506013729 21 360 11.3 19.3 0.00 0.00 0.00 76 1005.9
20260506013230 21 360 9.7 16.1 0.00 0.00 0.00 76 1005.7
20260506012729 21 360 11.3 19.3 0.00 0.00 0.00 75 1005.4
20260506012230 22 360 11.3 25.7 0.00 0.00 0.00 75 1005.4
20260506011729 22 337 8.0 14.5 0.00 0.00 0.00 75 1005.4
20260506011229 22 337 4.8 16.1 0.00 0.00 0.00 75 1005.3
20260506010729 22 337 8.0 16.1 0.00 0.00 0.00 74 1004.7
20260506010229 22 360 8.0 17.7 0.00 0.00 0.00 73 1004.7
20260506005729 23 360 4.8 11.3 0.00 0.00 0.00 72 1004.9
20260506005229 23 360 4.8 11.3 0.00 0.00 0.00 72 1004.6
20260506004729 23 337 8.0 16.1 0.00 0.00 0.00 71 1004.6
20260506004229 23 337 11.3 16.1 0.00 0.00 0.00 71 1004.9
20260506003729 23 315 6.4 11.3 0.00 0.00 0.00 70 1004.6
20260506003229 23 315 8.0 14.5 0.00 0.00 0.00 70 1004.6
20260506002729 23 337 14.5 25.7 0.00 0.00 0.00 69 1004.8
20260506002229 23 315 11.3 22.5 0.00 0.00 0.00 69 1004.6
20260506001729 23 337 11.3 19.3 0.00 0.00 0.00 69 1004.4
20260506001229 24 315 12.9 25.7 0.00 0.00 0.00 69 1004.4
20260506000729 24 315 11.3 20.9 0.00 0.00 0.00 69 1004.4
20260506000229 24 315 11.3 20.9 0.00 0.00 0.00 68 1004.4
20260505235729 24 315 17.7 25.7 0.00 0.00 0.00 68 1004.3
20260505235229 25 337 19.3 24.1 0.00 0.00 0.00 67 1004.3
20260505234729 25 315 11.3 22.5 0.00 0.00 0.00 65 1004.2
20260505234229 26 315 8.0 17.7 0.00 0.00 0.00 64 1004.1
20260505233729 26 315 9.7 17.7 0.00 0.00 0.00 63 1004.0
20260505233229 26 315 17.7 32.2 0.00 0.00 0.00 62 1004.1
20260505232729 26 337 16.1 32.2 0.00 0.00 0.00 61 1004.0
20260505232229 27 315 17.7 29.0 0.00 0.00 0.00 60 1003.7
20260505231730 27 315 17.7 30.6 0.00 0.00 0.00 57 1003.6
20260505231229 28 315 9.7 19.3 0.00 0.00 0.00 55 1003.4
20260505230729 28 315 9.7 22.5 0.00 0.00 0.00 54 1003.2
20260505230229 28 315 6.4 12.9 0.00 0.00 0.00 54 1003.0
20260505225729 28 315 9.7 16.1 0.00 0.00 0.00 52 1003.1
20260505225229 28 315 8.0 16.1 0.00 0.00 0.00 52 1003.2
20260505224729 28 315 8.0 17.7 0.00 0.00 0.00 51 1003.3
20260505224229 29 315 9.7 19.3 0.00 0.00 0.00 51 1003.1
20260505223729 30 315 11.3 19.3 0.00 0.00 0.00 50 1002.9
20260505223229 31 315 8.0 19.3 0.00 0.00 0.00 48 1002.8
20260505222729 32 0 0.0 0.0 0.00 0.00 0.00 53 1002.4
20260505222229 31 0 0.0 0.0 0.00 0.00 0.00 55 1002.4
20260505221729 31 270 3.2 8.0 0.00 0.00 0.00 55 1002.5
20260505221229 31 270 3.2 9.7 0.00 0.00 0.00 55 1002.4
20260505220729 31 247 1.6 8.0 0.00 0.00 0.00 54 1002.4
20260505220229 31 225 1.6 8.0 0.00 0.00 0.00 55 1002.7
20260505215729 31 270 3.2 9.7 0.00 0.00 0.00 55 1002.7
20260505215229 31 270 4.8 12.9 0.00 0.00 0.00 53 1002.8
20260505214730 31 247 3.2 8.0 0.00 0.00 0.00 53 1002.8
20260505214229 32 270 1.6 8.0 0.00 0.00 0.00 54 1002.7
20260505213729 32 270 3.2 8.0 0.00 0.00 0.00 54 1002.8
20260505213229 31 247 1.6 4.8 0.00 0.00 0.00 58 1002.9
20260505212729 31 270 1.6 4.8 0.00 0.00 0.00 58 1002.8
20260505212229 31 225 1.6 4.8 0.00 0.00 0.00 58 1002.9
20260505211729 31 135 3.2 16.1 0.00 0.00 0.00 56 1002.9
20260505211229 31 270 6.4 17.7 0.00 0.00 0.00 53 1003.1
20260505210729 31 247 1.6 9.7 0.00 0.00 0.00 54 1003.1
20260505210229 31 270 3.2 14.5 0.00 0.00 0.00 57 1003.1
20260505205729 31 202 6.4 16.1 0.00 0.00 0.00 55 1003.2
20260505205229 31 270 6.4 12.9 0.00 0.00 0.00 54 1003.2
20260505204729 31 270 1.6 4.8 0.00 0.00 0.00 58 1003.2
20260505204229 31 247 3.2 9.7 0.00 0.00 0.00 59 1003.2
20260505203729 30 270 1.6 9.7 0.00 0.00 0.00 59 1003.4
20260505203229 30 225 0.0 6.4 0.00 0.00 0.00 59 1003.5
20260505202729 30 202 1.6 16.1 0.00 0.00 0.00 59 1003.6
20260505202229 30 225 3.2 17.7 0.00 0.00 0.00 60 1003.5
20260505201729 30 225 1.6 6.4 0.00 0.00 0.00 61 1003.5
20260505201229 30 225 3.2 14.5 0.00 0.00 0.00 61 1003.4
20260505200729 30 247 1.6 11.3 0.00 0.00 0.00 61 1003.6
20260505200229 30 247 3.2 8.0 0.00 0.00 0.00 61 1003.5
20260505195729 30 225 1.6 17.7 0.00 0.00 0.00 60 1003.6
20260505195229 30 225 1.6 4.8 0.00 0.00 0.00 61 1003.7
20260505194729 30 225 1.6 4.8 0.00 0.00 0.00 60 1003.6
20260505194229 30 225 1.6 6.4 0.00 0.00 0.00 61 1003.6
20260505193729 30 270 3.2 8.0 0.00 0.00 0.00 63 1003.6
20260505193229 30 225 3.2 9.7 0.00 0.00 0.00 62 1003.6
20260505192729 29 225 4.8 19.3 0.00 0.00 0.00 64 1003.6
20260505192229 29 225 4.8 12.9 0.00 0.00 0.00 64 1003.7
20260505190145 28 247 3.2 9.7 0.00 0.00 0.00 64 1003.7
20260505185645 28 112 3.2 9.7 0.00 0.00 0.00 65 1003.7
20260505185145 28 112 1.6 9.7 0.00 0.00 0.00 66 1003.7
20260505184645 28 225 1.6 9.7 0.00 0.00 0.00 66 1003.8
20260505184145 28 202 3.2 8.0 0.00 0.00 0.00 66 1003.8
20260505183645 28 225 1.6 4.8 0.00 0.00 0.00 66 1003.8
20260505183145 28 225 1.6 9.7 0.00 0.00 0.00 66 1003.8
20260505182645 28 157 1.6 11.3 0.00 0.00 0.00 67 1003.9
20260505182145 28 270 0.0 4.8 0.00 0.00 0.00 68 1004.0
20260505181645 28 247 3.2 8.0 0.00 0.00 0.00 67 1004.0
20260505181145 28 225 1.6 16.1 0.00 0.00 0.00 66 1003.9
20260505180645 27 225 3.2 8.0 0.00 0.00 0.00 66 1003.9
20260505180145 27 135 1.6 14.5 0.00 0.00 0.00 68 1003.8
20260505175645 27 225 1.6 9.7 0.00 0.00 0.00 67 1003.9
20260505175145 27 225 3.2 11.3 0.00 0.00 0.00 69 1003.9
20260505174645 27 225 1.6 9.7 0.00 0.00 0.00 67 1004.0
20260505174145 27 225 1.6 8.0 0.00 0.00 0.00 69 1003.9
20260505173645 27 225 6.4 16.1 0.00 0.00 0.00 69 1003.9
20260505173145 27 225 3.2 11.3 0.00 0.00 0.00 69 1003.9
20260505172645 27 225 4.8 12.9 0.00 0.00 0.00 70 1003.9
20260505172145 27 225 3.2 19.3 0.00 0.00 0.00 71 1003.9
20260505171645 26 225 3.2 20.9 0.00 0.00 0.00 71 1003.8
20260505171145 26 225 3.2 9.7 0.00 0.00 0.00 70 1003.8
20260505170645 26 225 4.8 9.7 0.00 0.00 0.00 70 1004.2
20260505170145 26 225 3.2 16.1 0.00 0.00 0.00 71 1004.0
20260505165645 26 225 4.8 9.7 0.00 0.00 0.00 71 1003.9
20260505165145 26 225 3.2 8.0 0.00 0.00 0.00 72 1003.8
20260505164645 26 225 3.2 9.7 0.00 0.00 0.00 72 1004.0
20260505164145 26 225 3.2 4.8 0.00 0.00 0.00 72 1004.0
20260505163645 26 225 1.6 8.0 0.00 0.00 0.00 71 1004.1
20260505163145 26 225 1.6 9.7 0.00 0.00 0.00 70 1004.3
20260505162645 26 247 3.2 6.4 0.00 0.00 0.00 71 1004.2
20260505162145 26 225 3.2 9.7 0.00 0.00 0.00 71 1004.0
20260505161645 26 225 1.6 17.7 0.00 0.00 0.00 70 1003.9
20260505161145 26 225 1.6 8.0 0.00 0.00 0.00 71 1003.9
20260505160645 26 225 3.2 11.3 0.00 0.00 0.00 71 1003.9
20260505160145 26 225 4.8 22.5 0.00 0.00 0.00 71 1003.8
20260505153145 25 225 4.8 12.9 0.00 0.00 0.00 76 1003.7
20260505152645 25 247 3.2 11.3 0.00 0.00 0.00 76 1003.8
20260505152145 25 247 3.2 11.3 0.00 0.00 0.00 77 1003.9
20260505151645 25 225 4.8 19.3 0.00 0.00 0.00 77 1003.8
20260505151145 25 225 3.2 12.9 0.00 0.00 0.00 76 1003.9
20260505150645 25 225 3.2 8.0 0.00 0.00 0.00 78 1003.8
20260505150145 25 247 3.2 9.7 0.00 0.00 0.00 79 1003.8
20260505140645 22 225 3.2 9.7 0.00 0.00 0.00 84 1003.8
20260505140145 22 225 1.6 6.4 0.00 0.00 0.00 84 1003.8
20260505130145 22 225 3.2 17.7 0.00 0.00 0.00 85 1003.9
20260505124645 21 225 6.4 24.1 0.00 0.00 0.00 86 1003.6
20260505124145 21 225 4.8 17.7 0.00 0.00 0.00 86 1003.6
20260505123645 21 180 4.8 17.7 0.00 0.00 0.00 86 1003.5
20260505123145 21 225 6.4 20.9 0.00 0.00 0.00 86 1003.6
20260505122645 21 180 4.8 12.9 0.00 0.00 0.00 87 1003.6
20260505122145 21 180 4.8 14.5 0.00 0.00 0.00 87 1003.6
20260505121645 21 247 4.8 12.9 0.00 0.00 0.00 87 1003.5
20260505121145 21 247 3.2 12.9 0.00 0.00 0.00 87 1003.4
20260505120645 21 180 3.2 12.9 0.00 0.00 0.00 87 1003.3
20260505120145 21 225 3.2 8.0 0.00 0.00 0.00 87 1003.3
20260505115645 21 225 3.2 9.7 0.00 0.00 0.00 87 1003.3
20260505115145 21 180 6.4 14.5 0.00 0.00 0.00 87 1003.2
20260505114645 21 180 4.8 14.5 0.00 0.00 0.00 87 1003.1
20260505114145 21 225 3.2 19.3 0.00 0.00 0.00 87 1003.1
20260505113645 21 180 3.2 9.7 0.00 0.00 0.00 87 1003.2
20260505113145 21 247 3.2 16.1 0.00 0.00 0.00 86 1003.3
20260505112645 21 202 6.4 19.3 0.00 0.00 0.00 86 1003.2
20260505112145 21 247 3.2 16.1 0.00 0.00 0.00 86 1003.1
20260505111645 21 225 4.8 17.7 0.00 0.00 0.00 86 1003.1
20260505111145 21 180 4.8 14.5 0.00 0.00 0.00 85 1003.0
20260505110645 21 225 3.2 16.1 0.00 0.00 0.00 85 1003.0
20260505110145 21 202 1.6 12.9 0.00 0.00 0.00 85 1003.1
20260505102145 21 225 4.8 17.7 0.00 0.00 0.00 86 1003.1
20260505101645 21 225 3.2 17.7 0.00 0.00 0.00 86 1003.1
20260505101145 21 225 6.4 25.7 0.00 0.00 0.00 86 1003.1
20260505100645 21 157 4.8 14.5 0.00 0.00 0.00 86 1003.0
20260505100145 21 202 6.4 22.5 0.00 0.00 0.00 86 1003.0
20260505095645 21 180 4.8 19.3 0.00 0.00 0.00 86 1003.1
20260505095145 21 225 4.8 17.7 0.00 0.00 0.00 86 1003.2
20260505094645 21 202 4.8 20.9 0.00 0.00 0.00 86 1003.3
20260505094145 21 225 4.8 19.3 0.00 0.00 0.00 86 1003.1
20260505093645 21 157 4.8 12.9 0.00 0.00 0.00 86 1003.3
20260505093145 21 225 4.8 12.9 0.00 0.00 0.00 86 1003.3
20260505092645 21 225 4.8 20.9 0.00 0.00 0.00 86 1003.5
20260505092145 21 202 4.8 17.7 0.00 0.00 0.00 86 1003.5
20260505091645 21 180 3.2 19.3 0.00 0.00 0.00 86 1003.5
20260505091145 21 225 4.8 11.3 0.00 0.00 0.00 86 1003.5
20260505090645 21 225 4.8 20.9 0.00 0.00 0.00 86 1003.4
20260505090145 21 225 4.8 24.1 0.00 0.00 0.00 86 1003.5
20260505085645 21 225 6.4 24.1 0.00 0.00 0.00 86 1003.5
20260505085145 21 225 4.8 20.9 0.00 0.00 0.00 86 1003.4
20260505084645 21 225 4.8 14.5 0.00 0.00 0.00 86 1003.4
20260505084145 21 225 6.4 20.9 0.00 0.00 0.00 86 1003.5
20260505083645 21 202 6.4 22.5 0.00 0.00 0.00 85 1003.4
20260505083145 21 225 3.2 9.7 0.00 0.00 0.00 85 1003.4
20260505082645 21 225 6.4 20.9 0.00 0.00 0.00 85 1003.4
20260505082145 21 202 4.8 17.7 0.00 0.00 0.00 85 1003.4
20260505081645 21 202 6.4 20.9 0.00 0.00 0.00 85 1003.4
20260505081145 21 225 4.8 14.5 0.00 0.00 0.00 84 1003.6
20260505080645 21 225 6.4 19.3 0.00 0.00 0.00 84 1003.6
20260505080145 21 202 3.2 16.1 0.00 0.00 0.00 84 1003.6
20260505075645 21 225 4.8 14.5 0.00 0.00 0.00 84 1003.7
20260505075145 21 180 4.8 14.5 0.00 0.00 0.00 84 1003.7
20260505074645 21 225 4.8 16.1 0.00 0.00 0.00 83 1003.8
20260505074145 21 225 3.2 16.1 0.00 0.00 0.00 83 1003.9
20260505073645 21 225 4.8 14.5 0.00 0.00 0.00 83 1004.0
20260505073145 21 225 4.8 19.3 0.00 0.00 0.00 83 1004.0
20260505072645 21 225 3.2 14.5 0.00 0.00 0.00 82 1004.1
20260505072145 22 225 4.8 19.3 0.00 0.00 0.00 82 1004.1
20260505071645 22 225 3.2 19.3 0.00 0.00 0.00 82 1004.1
20260505071145 22 202 4.8 20.9 0.00 0.00 0.00 82 1004.2
20260505070645 22 225 6.4 20.9 0.00 0.00 0.00 82 1004.2
20260505070145 22 225 4.8 9.7 0.00 0.00 0.00 81 1004.4
20260505065645 22 202 4.8 17.7 0.00 0.00 0.00 81 1004.4
20260505065145 22 225 4.8 17.7 0.00 0.00 0.00 81 1004.6
20260505064645 22 225 4.8 17.7 0.00 0.00 0.00 81 1004.6
20260505064145 22 202 4.8 16.1 0.00 0.00 0.00 81 1004.6
20260505063645 22 202 6.4 24.1 0.00 0.00 0.00 81 1004.7
20260505063145 22 225 3.2 16.1 0.00 0.00 0.00 80 1004.8
20260505062645 22 225 4.8 19.3 0.00 0.00 0.00 80 1004.7
20260505062145 22 247 4.8 11.3 0.00 0.00 0.00 80 1004.7
20260505061645 22 180 6.4 24.1 0.00 0.00 0.00 80 1004.9
20260505061145 22 225 6.4 29.0 0.00 0.00 0.00 80 1004.7
20260505060645 22 225 9.7 29.0 0.00 0.00 0.00 80 1004.7
20260505060145 22 180 9.7 30.6 0.00 0.00 0.00 80 1004.7
20260505055645 22 180 11.3 24.1 0.00 0.00 0.00 80 1004.7
20260505055145 22 225 8.0 19.3 0.00 0.00 0.00 79 1004.9
20260505054645 22 180 8.0 20.9 0.00 0.00 0.00 79 1005.0
20260505054145 22 180 8.0 19.3 0.00 0.00 0.00 79 1005.1
20260505053645 22 180 9.7 29.0 0.00 0.00 0.00 79 1005.1
20260505053145 22 180 8.0 17.7 0.00 0.00 0.00 79 1005.1
20260505052645 22 180 9.7 17.7 0.00 0.00 0.00 78 1005.2
20260505052145 22 180 8.0 19.3 0.00 0.00 0.00 78 1005.3
20260505051645 22 180 9.7 22.5 0.00 0.00 0.00 78 1005.3
20260505051145 22 202 9.7 27.4 0.00 0.00 0.00 77 1005.4
20260505050645 22 180 11.3 30.6 0.00 0.00 0.00 77 1005.3
20260505050145 22 180 12.9 27.4 0.00 0.00 0.00 77 1005.3